Wind_Speed
31 30 29 30 30 31 31 30 29 29 29 30 31 31 32 33 35 35 35 35 36 37 36 35 34 34 33 31 28 27 26 25 23 21 21 22 23 24 25 24 24 26
33 31 30 30 30 31 31 31 30 29 29 29 30 31 32 33 34 36 37 36 36 37 38 38 37 35 35 33 31 30 28 27 26 23 22 22 22 23 25 25 25 26
34 34 33 32 31 31 31 32 31 31 30 30 31 31 32 33 35 36 38 39 38 38 38 38 38 37 37 36 34 33 31 29 28 25 23 23 23 22 23 25 27 27
34 35 35 34 34 34 33 33 33 33 33 32 33 33 33 33 35 36 37 39 40 40 40 39 38 38 38 38 37 36 35 33 30 28 26 25 24 24 23 25 28 29
35 37 37 37 37 37 37 37 37 37 37 35 35 35 36 36 36 37 38 39 41 43 43 42 40 39 38 38 39 39 38 37 34 31 29 26 25 25 24 25 28 30
35 37 39 40 40 40 40 40 40 41 41 40 38 38 38 39 39 38 39 40 42 44 45 45 44 42 39 38 39 40 40 40 38 35 32 29 27 26 26 26 27 29
35 35 37 39 41 42 42 41 42 42 42 42 41 40 39 41 42 41 41 41 43 45 47 47 46 46 42 39 39 40 42 42 41 39 37 33 30 28 28 27 27 28
38 37 36 38 39 41 42 41 41 42 42 42 42 40 39 40 42 43 43 44 43 44 47 49 49 48 46 42 40 40 42 43 43 41 40 38 35 32 30 29 29 28
44 43 41 39 39 40 42 42 42 42 43 43 42 41 40 40 41 43 44 45 46 46 46 48 51 50 48 46 42 40 41 44 45 43 42 41 40 37 32 31 30 29
50 48 46 44 41 41 42 43 44 44 43 43 43 42 41 41 41 42 45 46 47 48 48 48 51 52 51 49 46 41 41 44 46 45 44 43 42 40 36 33 32 30
54 53 51 48 45 43 43 43 45 45 44 43 43 43 42 42 42 43 45 47 47 48 49 49 50 52 52 50 49 45 42 43 46 46 45 44 43 42 39 35 33 31
56 55 53 50 47 44 44 45 46 46 45 44 43 43 43 43 43 43 45 48 49 48 49 51 51 52 52 51 50 49 45 42 45 47 47 46 44 42 38 35 34 32
57 54 53 51 48 45 44 46 47 47 47 45 44 43 43 43 43 44 45 48 49 48 48 51 51 51 52 52 50 50 48 44 43 46 48 47 45 42 38 35 34 34
55 53 52 50 48 46 46 47 48 49 49 48 45 44 44 44 44 44 46 47 48 48 48 50 51 50 52 53 50 48 49 47 43 45 49 49 47 43 39 37 36 35
54 52 51 50 49 48 48 48 50 51 51 49 47 45 45 47 46 45 47 47 46 46 47 48 50 50 50 53 50 47 49 50 45 43 47 49 48 45 42 39 38 36
52 52 51 50 50 50 50 51 52 53 53 51 48 47 47 48 48 48 48 48 45 45 46 47 49 49 49 51 50 47 47 50 48 44 47 49 49 47 44 41 39 37
50 50 50 51 51 52 52 53 54 54 54 52 50 49 49 49 50 50 50 49 46 45 46 47 48 48 48 49 49 46 46 48 49 46 47 50 49 47 45 42 39 38
48 49 50 51 52 53 53 53 53 54 54 53 51 49 48 49 50 51 51 50 48 47 47 48 48 47 48 48 48 46 45 47 47 44 44 50 50 47 47 44 40 39
46 48 50 51 52 52 52 51 51 52 52 50 48 46 45 46 48 49 51 50 48 48 48 48 48 48 47 47 46 45 44 47 49 42 40 47 51 49 47 45 41 39
46 47 48 49 49 49 48 47 47 47 46 45 43 42 41 43 45 47 48 47 47 48 49 49 49 49 48 46 45 44 44 48 51 46 40 44 51 51 48 46 43 41
44 45 46 46 46 44 43 42 42 42 42 41 40 40 40 41 42 44 45 45 45 48 49 49 50 49 48 47 45 44 46 49 50 47 43 46 51 52 49 47 46 44
43 43 43 42 41 40 39 39 40 40 40 39 40 40 41 42 43 43 43 43 45 48 49 50 50 50 49 48 46 45 47 51 49 44 45 50 52 50 49 48 47 45
40 39 38 37 37 37 37 37 37 38 38 39 41 41 42 43 43 44 44 44 46 49 49 49 50 51 50 49 48 46 49 55 52 44 46 51 50 47 48 47 46 44
36 34 34 35 35 36 36 36 37 38 39 41 42 42 43 44 45 46 46 46 48 50 51 51 51 52 51 50 49 48 51 57 52 44 47 51 49 46 47 47 45 43
32 32 33 34 35 36 37 38 40 41 42 43 43 44 45 45 46 46 46 46 50 51 51 51 52 52 51 50 49 50 54 56 51 45 48 51 49 47 47 47 45 43
31 32 33 35 37 38 40 41 43 44 44 44 45 46 46 46 45 45 45 46 48 49 48 49 51 52 51 49 49 52 55 54 49 47 50 51 50 48 48 47 45 43
Wind_Direction
306 302 299 296 295 293 291 288 285 283 279 277 275 272 268 263 261 262 264 265 267 268 269 268 266 263 259 253 249 249 251 254 255 255 259 264 267 264 256 249 247 247
304 300 296 293 291 289 288 286 284 281 278 275 273 272 271 269 263 260 259 260 261 264 266 267 266 264 261 256 251 247 246 249 251 252 254 258 263 265 261 254 247 246
302 299 296 294 291 287 285 284 282 280 278 275 272 269 267 268 268 265 261 258 256 258 261 263 264 263 261 259 255 250 247 246 247 249 250 252 256 260 261 258 252 247
296 295 294 292 291 288 286 283 282 280 278 276 274 272 268 264 264 265 264 261 257 255 255 258 261 261 260 259 257 253 249 246 246 247 248 249 250 254 258 258 256 251
292 290 289 288 287 287 286 285 283 282 281 278 276 274 273 269 265 262 262 262 260 257 253 252 256 259 260 258 257 254 251 248 246 245 244 245 246 249 252 255 257 254
289 287 285 284 284 283 283 283 283 282 281 280 279 277 275 274 271 266 262 260 259 259 257 253 251 254 258 258 256 254 252 250 247 244 242 242 243 244 247 250 255 255
288 284 283 282 281 281 280 280 280 280 281 281 280 279 277 276 275 272 268 264 259 257 258 257 253 250 252 256 255 252 252 251 249 246 245 243 240 240 244 247 251 254
292 287 284 282 281 281 280 280 279 279 280 281 281 280 279 278 278 276 274 271 266 261 258 259 257 251 248 251 253 251 250 250 248 247 247 245 240 238 241 245 247 251
297 293 289 285 282 281 280 279 279 279 279 280 281 281 281 280 279 279 276 274 271 268 263 260 260 256 249 247 249 249 248 248 247 245 244 244 242 239 239 241 244 246
299 297 293 289 284 280 278 278 278 278 278 278 279 280 280 278 277 277 277 275 272 270 266 262 260 259 254 248 245 245 245 245 246 244 241 241 242 241 239 237 239 242
298 297 295 291 287 281 278 277 277 276 277 277 278 279 278 276 274 274 274 274 272 269 266 263 260 258 257 252 245 243 242 242 243 243 239 238 240 241 238 235 234 237
297 297 295 293 288 282 279 278 277 276 275 275 276 276 276 274 272 272 272 272 271 268 265 262 259 256 256 254 247 242 240 239 240 242 239 237 237 238 237 233 231 232
295 295 294 292 288 283 279 278 277 276 275 275 275 275 274 273 271 269 269 269 268 267 264 261 258 254 253 254 250 243 240 238 237 240 240 236 235 236 235 232 230 230
293 292 290 289 286 283 280 278 277 276 275 273 273 273 273 272 270 267 265 265 265 265 263 260 258 254 251 252 251 245 240 238 236 237 238 236 233 234 234 231 229 230
290 289 287 286 284 282 281 279 277 276 274 274 273 273 272 270 268 265 263 262 262 263 261 258 256 253 249 250 251 247 240 238 236 235 236 236 233 233 232 230 229 230
287 286 285 284 283 282 281 279 277 276 275 275 275 273 272 270 268 265 263 262 261 260 258 256 253 250 248 249 251 249 242 237 236 234 232 232 233 233 231 229 229 230
286 285 284 284 283 282 280 278 277 276 276 276 276 274 273 270 267 264 263 262 261 258 255 253 251 249 247 248 250 249 244 237 235 234 231 228 230 233 233 229 228 229
287 285 284 283 282 281 280 278 277 277 276 277 277 276 274 270 266 264 263 262 260 258 253 251 251 249 247 249 250 249 245 236 231 233 233 229 228 231 233 231 228 228
288 285 284 282 282 281 280 279 278 276 277 278 278 276 272 269 266 263 262 261 259 257 254 250 249 249 248 249 249 248 243 233 226 229 233 230 228 230 231 230 229 228
289 287 285 284 284 283 282 280 278 278 278 278 276 273 269 266 264 262 260 259 257 256 254 250 247 247 247 248 249 246 239 229 224 227 230 227 227 229 228 227 228 229
292 290 289 288 287 285 282 281 280 279 278 275 273 271 267 264 263 261 259 258 255 254 253 250 246 245 246 247 247 244 236 226 223 226 228 226 225 227 228 225 224 226
293 292 291 289 286 283 281 280 279 278 276 275 273 269 264 263 262 261 260 258 255 254 253 250 246 243 244 246 246 243 234 224 220 223 226 226 225 224 224 223 221 220
293 292 291 287 283 280 279 278 278 277 275 274 272 268 265 264 264 263 262 260 257 255 254 251 247 243 244 245 244 241 231 221 220 221 222 223 223 220 221 221 220 218
292 290 288 285 282 281 280 279 278 277 276 275 274 273 271 269 268 267 265 263 260 258 255 253 248 244 245 244 241 236 227 220 220 219 216 217 218 218 219 218 216 216
292 290 289 288 288 288 286 284 283 281 280 279 278 277 274 272 270 268 265 261 259 257 255 252 248 244 243 241 236 229 221 219 218 214 210 212 213 216 218 215 212 213
297 298 298 297 295 292 290 288 286 284 282 280 279 276 274 271 269 266 262 258 255 254 252 248 244 241 237 233 228 222 216 214 214 210 207 209 211 213 214 212 210 212
Height
3081 3081 3080 3080 3079 3078 3078 3077 3077 3076 3076 3076 3075 3075 3074 3073 3073 3073 3074 3075 3075 3076 3077 3077 3078 3079 3079 3080 3080 3080 3080 3081 3082 3083 3084 3085 3086 3087 3087 3088 3089 3091
3076 3076 3075 3074 3074 3073 3072 3072 3072 3071 3071 3071 3071 3070 3070 3069 3069 3069 3069 3070 3071 3072 3072 3073 3074 3074 3075 3076 3076 3076 3076 3077 3077 3079 3080 3081 3082 3083 3084 3085 3086 3088
3071 3069 3069 3068 3067 3067 3066 3066 3066 3066 3066 3066 3065 3065 3065 3065 3064 3064 3064 3065 3066 3067 3067 3068 3069 3070 3070 3071 3072 3073 3073 3073 3073 3074 3075 3077 3078 3080 3081 3082 3083 3084
3066 3064 3063 3062 3061 3060 3060 3059 3059 3059 3059 3060 3059 3059 3059 3059 3059 3059 3059 3059 3060 3061 3062 3062 3063 3065 3066 3066 3067 3068 3069 3069 3070 3070 3071 3072 3074 3075 3077 3078 3079 3081
3063 3060 3059 3057 3055 3054 3053 3052 3052 3052 3052 3053 3053 3053 3052 3053 3053 3054 3054 3054 3054 3054 3055 3056 3058 3059 3060 3061 3062 3063 3064 3065 3066 3066 3067 3068 3070 3071 3073 3074 3076 3077
3058 3056 3054 3052 3050 3049 3047 3046 3045 3045 3044 3045 3046 3047 3046 3046 3046 3047 3048 3048 3048 3048 3049 3050 3052 3053 3055 3056 3057 3058 3059 3060 3061 3062 3062 3063 3065 3067 3068 3070 3071 3073
3052 3051 3049 3047 3045 3043 3042 3041 3040 3039 3038 3037 3038 3039 3040 3039 3039 3040 3041 3041 3042 3042 3042 3043 3044 3047 3049 3050 3051 3053 3054 3055 3056 3057 3057 3059 3061 3062 3064 3066 3067 3069
3045 3044 3043 3041 3039 3038 3036 3034 3033 3032 3031 3030 3030 3031 3032 3032 3032 3032 3033 3034 3034 3035 3036 3036 3037 3039 3042 3044 3045 3046 3048 3049 3050 3052 3053 3055 3056 3057 3059 3061 3063 3065
3037 3036 3035 3034 3033 3031 3029 3028 3027 3026 3025 3024 3023 3023 3024 3025 3025 3025 3025 3026 3026 3028 3029 3030 3030 3032 3035 3037 3038 3040 3042 3043 3045 3046 3048 3049 3051 3052 3055 3056 3058 3060
3029 3028 3027 3026 3026 3024 3023 3022 3020 3019 3018 3017 3016 3016 3016 3017 3018 3017 3017 3018 3019 3020 3021 3023 3023 3024 3027 3029 3031 3034 3035 3037 3038 3040 3042 3043 3045 3047 3049 3051 3053 3055
3022 3021 3020 3019 3018 3017 3016 3015 3014 3012 3011 3011 3010 3009 3009 3009 3010 3011 3010 3010 3011 3012 3013 3015 3016 3017 3018 3021 3024 3026 3028 3030 3032 3033 3035 3037 3039 3041 3043 3045 3048 3050
3015 3014 3012 3011 3010 3009 3008 3007 3006 3005 3004 3004 3003 3002 3001 3002 3002 3003 3003 3003 3004 3005 3006 3007 3008 3009 3010 3013 3016 3019 3021 3023 3025 3027 3029 3031 3033 3036 3038 3040 3043 3045
3008 3006 3004 3003 3002 3002 3001 3000 2999 2998 2997 2996 2995 2994 2994 2994 2995 2995 2996 2996 2997 2998 2999 2999 3000 3002 3003 3005 3008 3012 3014 3016 3018 3020 3023 3025 3028 3030 3033 3036 3038 3039
3000 2998 2996 2995 2994 2994 2993 2992 2991 2990 2989 2988 2988 2986 2986 2987 2987 2988 2988 2989 2989 2990 2991 2991 2992 2994 2995 2997 3000 3004 3007 3009 3011 3014 3016 3019 3022 3025 3028 3031 3033 3034
2991 2989 2988 2986 2986 2985 2985 2984 2983 2982 2981 2980 2980 2979 2978 2979 2979 2980 2980 2981 2982 2983 2983 2984 2984 2986 2988 2990 2993 2997 2999 3002 3004 3007 3010 3013 3016 3019 3022 3026 3028 3029
2982 2981 2979 2978 2977 2977 2976 2976 2975 2974 2972 2971 2971 2971 2970 2970 2971 2971 2972 2972 2974 2975 2975 2976 2977 2979 2981 2983 2986 2989 2992 2994 2997 3000 3003 3007 3011 3013 3016 3019 3022 3024
2974 2973 2971 2970 2969 2968 2968 2967 2966 2965 2963 2962 2962 2962 2962 2962 2962 2962 2963 2964 2965 2966 2967 2968 2969 2972 2974 2976 2979 2982 2984 2987 2990 2994 2997 3001 3005 3008 3011 3014 3017 3020
2967 2965 2963 2962 2961 2960 2959 2958 2957 2955 2953 2953 2953 2953 2953 2952 2952 2953 2953 2955 2956 2958 2958 2960 2962 2965 2967 2969 2972 2975 2978 2980 2984 2988 2991 2995 2999 3003 3006 3009 3012 3015
2959 2957 2956 2954 2953 2951 2950 2948 2947 2945 2944 2944 2944 2943 2943 2942 2942 2943 2944 2946 2948 2949 2950 2952 2954 2957 2960 2962 2965 2968 2971 2973 2977 2981 2985 2989 2992 2996 2999 3003 3007 3010
2952 2950 2948 2947 2945 2943 2941 2939 2937 2936 2936 2935 2935 2934 2933 2933 2933 2934 2935 2937 2939 2940 2941 2943 2946 2949 2952 2954 2958 2961 2963 2966 2970 2973 2977 2981 2986 2989 2992 2996 3001 3005
2945 2943 2940 2939 2937 2935 2933 2931 2930 2929 2928 2927 2926 2926 2925 2924 2925 2925 2926 2928 2930 2931 2931 2934 2937 2941 2944 2947 2950 2954 2956 2959 2963 2966 2970 2975 2979 2983 2986 2990 2995 3000
2938 2935 2933 2931 2929 2928 2926 2925 2923 2922 2921 2920 2918 2917 2917 2916 2916 2917 2917 2919 2921 2921 2922 2925 2929 2933 2936 2939 2943 2946 2949 2952 2956 2960 2965 2969 2972 2977 2981 2984 2989 2995
2932 2929 2927 2925 2923 2921 2919 2918 2916 2915 2914 2912 2910 2909 2909 2908 2908 2908 2909 2911 2912 2912 2913 2916 2920 2925 2928 2931 2935 2939 2942 2945 2949 2953 2959 2963 2967 2971 2975 2979 2985 2991
2927 2924 2921 2919 2917 2915 2913 2911 2909 2907 2906 2904 2903 2901 2900 2900 2900 2899 2900 2902 2902 2902 2904 2907 2911 2915 2919 2922 2927 2931 2934 2938 2942 2946 2952 2958 2962 2965 2969 2974 2980 2986
2922 2919 2917 2914 2912 2910 2907 2905 2902 2900 2898 2897 2895 2893 2891 2891 2890 2889 2890 2892 2892 2892 2894 2897 2901 2905 2909 2913 2918 2923 2927 2931 2935 2940 2946 2952 2957 2960 2964 2969 2974 2980
2918 2915 2913 2910 2907 2904 2901 2898 2895 2892 2890 2888 2886 2883 2881 2880 2880 2879 2879 2880 2881 2882 2885 2888 2891 2895 2900 2905 2910 2915 2920 2925 2929 2935 2941 2947 2952 2955 2960 2965 2970 2975